Starlink 5805

operational
NORAD ID: 56912 Int'l Des: 2023-083 Owner: SPXS Country: US Constellation: starlink
LEOCIRCULAR

Über Starlink 5805

Beschreibung wird geladen...

Live-Position

3D-Globus wird geladen...

Nächste Überflüge

Höhenverlauf

Altitude vs Time

uPlot chart will show altitude changes over time

Zweizeiliger Elementsatz

1 56912U 23083AN 26062.13959017 -.00000272 00000-0 -50403-5 0 9990
2 56912 43.0012 104.4871 0001266 266.8682 93.2016 15.02534626150835
Epoch: 3. März 2026 • Age: 25 hours

Aktueller Status

Höhe 566.5 km
Geschwindigkeit 7.58 km/s
Subsatellitenpunkt -30.06°S, 122.64°W
Startdatum 12. Juni 2023
Alter 2.7 years
Typ internet

Technische Details

Klassifizierung Payload
Masse 305.00 kg
Trockenmasse 290.00 kg
Gesamtmasse 305.00 kg
Länge 0.20 m
Durchmesser 2.80 m
Spannweite 9.00 m
Form Box + pan
Hersteller SPXS
Bus-Typ Starlink
Phasenstatus In Orbit
Besitzer/Staat SPXS/US

Große Konstellationen

Loading constellations...